Location: Sandy Point Observatory
(37.2521°N, 76.9605°W)
Time: 12:00:21
(UTC-04:00)

Hubble Space Telescope - Visible Passes

Search period start: 21 September 2018 00:00
Search period end: 01 October 2018 00:00
Orbit: 537 x 541 km, 28.5° (Epoch: 20 September)

Date Brightness Start Highest point End Pass type
(mag) Time Alt. Az. Time Alt. Az. Time Alt. Az.
21 Sep 2.3 20:03:25 10° SW 20:06:45 24° S 20:09:00 15° SE visible
22 Sep 2.4 19:52:58 10° WSW 19:56:17 24° S 19:59:09 12° SE visible
22 Sep 3.7 21:34:26 10° SW 21:34:29 10° SW 21:34:29 10° SW visible
23 Sep 2.5 19:42:33 10° WSW 19:45:49 23° S 19:49:05 10° SE visible
23 Sep 3.6 21:24:24 10° SW 21:24:39 11° SW 21:24:39 11° SW visible
24 Sep 2.6 19:32:10 10° WSW 19:35:21 21° S 19:38:31 10° SE visible
24 Sep 3.5 21:14:41 10° SW 21:14:51 10° SW 21:14:51 10° SW visible
25 Sep 2.8 19:21:50 10° WSW 19:24:52 20° S 19:27:54 10° SE visible
